Terminal Aerodrome Forecast
Issued by NWS Louisville, KY

Home | Current Version | Previous Version | Text Only | Print | Product List | Glossary On
Versions: 1 2 3 4 5 6 7 8 9 10 11 12 13 14 15 16 17
000
FTUS43 KLMK 040500
TAFBWG
TAF
KBWG 040537Z 0406/0506 VRB03KT P6SM FEW150
     FM040900 VRB03KT 4SM BR SCT150
     FM041200 22009KT P6SM SCT150
     FM050200 19003KT P6SM BKN250=

USA.gov is the U.S. government's official web portal to all federal, state and local government web resources and services.